Location: Zagreb
(45.8000°N, 16.0000°E)
Time: 18:23:49
(UTC+02:00)

Tiros 1 despin weight - Pass Details

Date: 11 August 2022
Orbit: 591 x 638 km, 48.2° (Epoch: 06 October)

Event Time Altitude Azimuth Distance (km) Brightness Sun altitude
Rises 14:40:57 0° 255° (WSW) 2,844 ? 52.9°
Reaches altitude 10° 14:43:15 10° 257° (WSW) 1,935 ? 52.6°
Maximum altitude 14:47:42 81° 344° (NNW) 606 ? 52.1°
Drops below altitude 10° 14:52:06 10° 73° (ENE) 1,922 ? 51.6°
Sets 14:54:23 0° 74° (ENE) 2,821 ? 51.3°
